IBEX

Last updated on June 9, 2017, 12:18 a.m. UTC

1 33401U 08051A   17162.83686537 -.00002739  00000-0  00000-0 0  9990
2 33401  26.0179  93.9503 6586277  22.5731 356.6008  0.10313265  3639
UTC
Height (km)
Latitude
Longitude
Inclination
Orbital Period
UTC large
Height (km)
Speed (km/s)
/
Latitude / Longitude
Inclination (degrees)
Orbital Period (minutes)
Azimuth
Elevation
Range (km)
Doppler Factor
iOS Compass Heading
iOS Angle

Next 30 passes for location: Hong Kong

Rise time Rise Azimuth (degrees) Set time Set Azimuth (degrees) Duration Max altitude (degrees)

No matching passes for this satellites